User: anonymous   Login
Location: Caltech
(34.1382°N, 118.1253°W)
Time: 12:46:04
(UTC-07:00)
Language:

JAS-1B - Orbit

View from above orbital plane
View from above orbital plane
View from above satellite
View from above satellite

Ground track
Ground track

The orbit data is extracted from the following two-line orbital elements,

1 20480U 90013C   15146.75443654 -.00000057  00000-0 -46608-4 0  9994
2 20480 099.0704 050.8632 0539389 296.0690 123.4249 12.83405580185205
Epoch (UTC): 26 May 2015 18:06:23
Eccentricity: 0.0539389
inclination: 99.0704°
perigee height: 912 km
apogee height: 1743 km
right ascension of ascending node: 50.8632°
argument of perigee: 296.0690°
revolutions per day: 12.83405580
mean anomaly at epoch: 123.4249°
orbit number at epoch: 18520

The dashed part of the orbit path shows where the satellite is in the earth's shadow,  

DLR